Location: Hermaringen
(48.5952°N, 10.2585°E)
Time: 14:55:01
(UTC+00:00)

Explorer 7 - Pass Details

Date: 23 February 2026
Orbit: 430 x 541 km, 50.2° (Epoch: 8 March)

Event Time Altitude Azimuth Distance (km) Brightness Sun altitude
Rises 17:37:07 0° 287° (WNW) 2,492 11.6 -8.0°
Reaches altitude 10° 17:39:19 10° 279° (W) 1,634 10.7 -8.4°
Maximum altitude 17:42:46 39° 210° (SSW) 743 7.8 -8.9°
Drops below altitude 10° 17:46:21 10° 141° (SE) 1,692 9.0 -9.5°
Enters shadow 17:47:52 - 135° (SE) 2,278 9.6 -9.8°
